Regional Weather Roundup
Issued by NWS

Home | Current Version | Previous Version | Graphics & Text | Print | Product List | Glossary On
Versions: 1 2 3 4 5 6 7 8 9 10 11 12 13 14 15 16 17 18 19 20 21 22 23 24 25 26 27 28 29 30 31 32 33 34 35 36 37 38 39 40 41 42 43 44 45 46 47 48 49 50
880
ASUS45 KTFX 071710
RWRMT
MONTANA REGIONAL WEATHER ROUNDUP
NATIONAL WEATHER SERVICE GREAT FALLS MT
1000 AM MST WED DEC 07 2016

NOTE: "FAIR" INDICATES FEW OR NO CLOUDS BELOW 12000 FEET WITH NO
SIGNIFICANT WEATHER AND/OR OBSTRUCTIONS TO VISIBILITY.

MTZ001>007-043-071800-
WEST OF THE DIVIDE

CITY           SKY/WX    TMP DP  RH WIND       PRES   REMARKS
KALISPELL      CLOUDY     7  -4  60 N10       30.45R WCI  -8
MISSOULA       CLOUDY    12   0  58 E16       30.42R WCI  -5
BUTTE          LGT SNOW   2  -4  76 CALM      30.24R
MULLAN PASS    CLOUDY     4   0  83 VRB3      30.13R
ANACONDA         N/A      1  -8  66 CALM      30.30R
DEER LODGE       N/A      3  -8  60 CALM      30.35R
EUREKA           N/A     -2  -6  84 E3        30.52R
HAMILTON         N/A     12   0  57 CALM      30.37R
LIBBY            N/A     14   1  57 CALM      30.46R
PLAINS           N/A     16   2  54 N3        30.43R
RONAN            N/A     14   7  74 CALM      30.39R
THOMPSON FALLS   N/A     16   6  64 NE10      30.45R WCI   4
$$

MTZ008-052>055-071800-
SOUTHWEST MONTANA

CITY           SKY/WX    TMP DP  RH WIND       PRES   REMARKS
BOZEMAN        CLOUDY     4  -2  76 W5        30.35R HAZE
DILLON         SUNNY      3  -4  72 NE6       30.26R WCI  -8
W YELLOWSTONE  CLOUDY    -9 -17  70 CALM      30.16R
ENNIS          CLOUDY     1  -4  78 CALM      30.30R
THREE FORKS      N/A      5 -64   3 N3        30.32R
$$

MTZ009-010-012-014-046-048-049-054-071800-
EAST SLOPES AND CENTRAL MONTANA

CITY           SKY/WX    TMP DP  RH WIND       PRES   REMARKS
CUT BANK       SUNNY     -5 -10  79 NW17      30.44S WCI -27
GREAT FALLS    MOSUNNY   -1  -8  72 CALM      30.47R
HELENA         CLOUDY     2  -7  66 NW7       30.44R WCI -11
AUGUSTA        FLURRIES  -4  -8  79 SW3       30.39R
CHOTEAU          N/A      0  -8  71 MISG      30.46R HAZE
CONRAD           N/A     -2  -9  72 W5        30.44R
POWER          FLURRIES  -3  -7  81 NW10      30.45R WCI -20
RAYNESFORD       N/A     -6 -12  76 W2        30.44R
ULM            PTSUNNY   -3  -8  78 NE7G35    30.49R WCI -16
$$

MTZ011-013-016-021-045-047-050-051-071800-
NORTH CENTRAL MONTANA

CITY           SKY/WX    TMP DP  RH WIND       PRES   REMARKS
HAVRE          CLOUDY     1  -5  75 SW14      30.56R WCI -17
LEWISTOWN      MOSUNNY   -4  -9  79 W12       30.40R WCI -22
N BAR RANCH      N/A      0 -11  60 W6        30.35R WCI -12
CHINOOK          N/A      1  -8  66 W20G25    30.56R WCI -20
DENTON         PTSUNNY   -5 -10  79 SW8G23    30.43R WCI -21
GEYSER           N/A     -3 -10  72 W22G28    30.40R WCI -26
GRASS RANGE    PTSUNNY   -2  -8  75 W20G26    30.37R WCI -25
JUDITH GAP     PTSUNNY   -6 -10  81 N18G25    30.31R WCI -29
ROY            PTSUNNY   -1  -7  76 MISG      30.41R
STANFORD         N/A     -8 -12  82 S2        30.37R
WINIFRED         N/A     -2  -8  78 MISG      30.43R
$$

MTZ017>020-022>027-061-062-071800-
NORTHEAST MONTANA

CITY           SKY/WX    TMP DP  RH WIND       PRES   REMARKS
GLASGOW        CLOUDY     0  -9  65 W25G35    30.48R WCI -24
JORDAN           N/A      4  -5  66 NW20      30.48R WCI -17
SIDNEY         MOSUNNY    0  -8  69 NW29G36   30.42R WCI -26
WOLF POINT     SUNNY      2  -9  60 W20       30.49R WCI -19
PLENTYWOOD       N/A     -4 -11  71 NW24      30.37R WCI -29
POPLAR           N/A      0 -11  60 W17       30.48R WCI -21
SCOBEY           N/A     -4 -16  56 NW18      30.35R WCI -26
$$

MTZ028>42-056>058-071800-
SOUTHCENTRAL AND SOUTHEAST MONTANA

CITY           SKY/WX    TMP DP  RH WIND       PRES   REMARKS
BAKER          CLOUDY     3  -3  76 NW23G31   30.37R WCI -19
BILLINGS       MOSUNNY    5  -2  72 N3        30.41R
LIVINGSTON     CLOUDY     3  -6  66 NW10      30.31R WCI -12
MILES CITY     CLOUDY     5  -6  60 NW20      30.48R WCI -15
BIG TIMBER     MOSUNNY    3  -4  72 CALM      30.35R
EKALAKA          N/A      0  -9  65 W17       30.27R WCI -20
FORSYTH          N/A      3  -6  66 W12G20    30.49R WCI -13
HARLOWTON      PTSUNNY   -1  -8  71 N14       30.34R WCI -20
LAUREL           N/A      6  -8  52 W3        30.35R
ROUNDUP          N/A      4  -7  60 S5        30.30R
$$

REGIONAL REPORTS...DAKOTAS

CITY           SKY/WX    TMP DP  RH WIND       PRES   REMARKS
WILLISTON      CLOUDY    -1  -9  68 NW16      30.42R WCI -21
MINOT          BLWGSNOW   6   0  76 W36G48    30.19R VSB 3/4 WCI -19
DICKINSON      MIX PCPN  -1  -7  75 NW31G40   30.27R VSB 1   WCI -28
BEACH          LGT SNOW   0  -6  78 NW23G29   30.39R WCI -24
CROSBY         LGT SNOW   1  -4  78 NW28G35   30.36R WCI -23
TIOGA          CLOUDY     0  -4  85 NW24G31   30.31S FOG     WCI -24
WATFORD CITY   CLOUDY     0  -8  71 NW15G26   30.39R WCI -20
BISMARCK       CLOUDY     5  -1  76 W23G38    30.27R WCI -17
GRAND FORKS    LGT SNOW  16  11  80 NW26      29.96R BLWGSNOWWCI  -3
FARGO          CLOUDY    14   6  70 W25G39    30.03R HAZE    WCI  -5
BUFFALO SD       N/A      4  -4  69 NW29G36   30.25R WCI -20
RAPID CITY     CLOUDY     9  -2  61 NW28G33   30.33R WCI -13
$$

REGIONAL REPORTS...WYOMING/IDAHO/WASHINGTON

CITY           SKY/WX    TMP DP  RH WIND       PRES   REMARKS
GILLETTE       CLOUDY    -1  -6  79 NW8       30.32R WCI -15
SHERIDAN       PTSUNNY  N/A N/A N/A MISG      30.38R
BUFFALO WY     CLOUDY     0  -7  72 NW14      30.28R WCI -19
CODY           CLOUDY     1  -4  79 CALM      30.28R
YELLOWSTONE LA   N/A    -13 -17  82 CALM      30.04R
IDAHO FALLS    MOSUNNY   11   4  73 CALM      30.27R
SALMON         CLOUDY    12  10  92 CALM      30.29R
BOISE          CLOUDY    18  15  88 SE5       30.36R
SPOKANE        PTSUNNY   21  16  81 CALM      30.39R
$$

REGIONAL REPORTS...ALBERTA

CITY           SKY/WX    TMP DP  RH WIND       PRES   REMARKS
EDMONTON       FLURRIES  -4 -13  65 NW7       30.62R WCI -18
CALGARY        PTCLDY    -6 -15  65 NW9G17    30.47R WCI -22
LETHBRIDGE     MOSUNNY   -8 -13  77 W5        30.56R
MEDICINE HAT   MOSUNNY   -4 -11  71 W10       30.60R WCI -21
WATERTON GATE    N/A     -9 -15  77 CALM        N/A
CARDSTON         N/A    -11 -17  77 SW7         N/A  WCI -26
MILK RIVER       N/A     -4 -11  71 NW12        N/A  WCI -22
$$

REGIONAL REPORTS...SASKATCHEWAN

CITY           SKY/WX    TMP DP  RH WIND       PRES   REMARKS
SWIFT CURRENT  PTSUNNY   -6  -9  84 NW26      30.40R WCI -32
REGINA         CLOUDY     0  -6  78 NW22G28   30.38R BLWGSNOWWCI -23
SASKATOON      MOSUNNY    3  -6  66 NW16G22   30.47R WCI -16
ROCKGLEN         N/A     -8 -13  77 NW15G23     N/A  WCI -29
ASSINIBOIA       N/A     -2 -11  65 NW14        N/A  WCI -21
$$




USA.gov is the U.S. government's official web portal to all federal, state and local government web resources and services.